Погода в Луге

Россия / Санкт-Петербург и Ленинградская область     58°44′06″N   29°50′52″E
темп.,
°C
ветер,
м/с
пор.,
м/с
влажн.,
%
обл.,
%
осадки,
мм/ч
давл.,
гПа
погр.,
м
4 августа, ср
ср400:00+10зюз29955 0.0 1010186
03:00+9зюз27945 0.0 1011128
06:00+9зюз27965 0.0 1012160
09:00+15з35674 0.0 1014565
12:00+19з354115 0.0 10142246
15:00+20з4535100 0.0 10142550
18:00+18сз2451100 0.0 1015877
21:00+14ссз1165100 0.0 101611
5 августа, чт
чт500:00+13св0067100 0.0 101711
03:00+12с11755 0.0 101710
06:00+11в1176100 0.0 101716
09:00+14в1264100 0.0 1018152
12:00+20св114239 0.0 10171103
15:00+22ссв213350 0.0 10162435
18:00+20св234265 0.0 10161002
21:00+15с25635 0.0 101684
6 августа, пт
пт600:00+12в227986 0.0 101645
03:00+13в228559 0.0 101668
06:00+13св238445 0.0 101778
09:00+17всв48530 0.0 1016550
12:00+21всв573978 0.0 10162442
15:00+21всв573813 0.0 10152136
18:00+18всв41052100 0.0 1015611
21:00+17всв51054100 0.0 1015770
7 августа, сб
сб700:00+13всв4127137 0.0 1015747
03:00+12всв41180100 0.0 1015635
06:00+11всв51284100 0.0 1014593
09:00+11всв51495100 2.3 1014588
12:00+13всв61494100 0.2 1014734
15:00+14всв51296100 0.6 1013852
18:00+14в51296100 0.2 1013762
21:00+14в51197100 0.6 1013711
8 августа, вс
вс800:00+14всв41198100 0.4 1012619
03:00+14всв41098100 2.1 1011575
06:00+14всв3999100 0.1 1011516
09:00+14св2599100 0.1 1010285
12:00+16вюв1397100 0.0 1011387
15:00+19ююз238569 0.3 1012630
18:00+20зюз237547 0.6 1012745
21:00+15сз12975 0.9 101420